contact:dominique.lefevre@mio.osupytheas.fr, maurice.libes@osupytheas.fr, didier.mallarino@osupytheas.fr
Project:EMSO http://www.emso-fr.org/EMSO-France
Depth: 2436.0 m
Title:EMSO Ligure Ouest : Data MII capteur MICROCAT
DateTime_Computer,Latitude,Longitude,Temperature,Conductivity,Pressure,DateTime_Instrument
DateTime_Computer,Latitude,Longitude,degC,S m-1,dbar,DateTime_Instrument
2021-02-04T00:01:26Z,42.805,6.029,13.2987,4.59993,2470.31,2021-2-04T02:02:29Z
2021-02-04T00:04:29Z,42.805,6.029,13.2990,4.59992,2470.297,2021-2-04T02:05:32Z
2021-02-04T00:07:32Z,42.805,6.029,13.2989,4.59991,2470.287,2021-2-04T02:08:35Z
2021-02-04T00:10:36Z,42.805,6.029,13.2988,4.59995,2470.273,2021-2-04T02:11:39Z
2021-02-04T00:13:39Z,42.805,6.029,13.2987,4.59992,2470.26,2021-2-04T02:14:42Z
2021-02-04T00:16:42Z,42.805,6.029,13.2988,4.59992,2470.287,2021-2-04T02:17:45Z
2021-02-04T00:19:45Z,42.805,6.029,13.2989,4.59992,2470.264,2021-2-04T02:20:48Z
2021-02-04T00:22:48Z,42.805,6.029,13.2986,4.59993,2470.264,2021-2-04T02:23:51Z
2021-02-04T00:25:51Z,42.805,6.029,13.2990,4.59994,2470.25,2021-2-04T02:26:54Z
2021-02-04T00:28:54Z,42.805,6.029,13.2986,4.59994,2470.287,2021-2-04T02:29:57Z
2021-02-04T00:31:57Z,42.805,6.029,13.2990,4.59993,2470.25,2021-2-04T02:33:00Z
2021-02-04T00:35:01Z,42.805,6.029,13.2989,4.59994,2470.25,2021-2-04T02:36:03Z
2021-02-04T00:38:04Z,42.805,6.029,13.2986,4.59992,2470.25,2021-2-04T02:39:07Z
2021-02-04T00:41:07Z,42.805,6.029,13.2990,4.59993,2470.25,2021-2-04T02:42:10Z
2021-02-04T00:44:10Z,42.805,6.029,13.2991,4.59993,2470.273,2021-2-04T02:45:13Z
2021-02-04T00:47:13Z,42.805,6.029,13.2989,4.59994,2470.25,2021-2-04T02:48:16Z
2021-02-04T00:50:16Z,42.805,6.029,13.2984,4.59996,2470.297,2021-2-04T02:51:19Z
2021-02-04T00:53:19Z,42.805,6.029,13.2988,4.59994,2470.25,2021-2-04T02:54:22Z
2021-02-04T00:56:22Z,42.805,6.029,13.2989,4.59992,2470.287,2021-2-04T02:57:25Z
2021-02-04T00:59:25Z,42.805,6.029,13.2988,4.59996,2470.264,2021-2-04T03:00:28Z
2021-02-04T01:02:29Z,42.805,6.029,13.2987,4.59993,2470.273,2021-2-04T03:03:32Z
2021-02-04T01:05:32Z,42.805,6.029,13.2991,4.59994,2470.25,2021-2-04T03:06:35Z
2021-02-04T01:08:35Z,42.805,6.029,13.2988,4.59992,2470.227,2021-2-04T03:09:38Z
2021-02-04T01:11:38Z,42.805,6.029,13.2987,4.59992,2470.31,2021-2-04T03:12:41Z
2021-02-04T01:14:41Z,42.805,6.029,13.2988,4.59994,2470.273,2021-2-04T03:15:44Z
2021-02-04T01:17:44Z,42.805,6.029,13.2990,4.59992,2470.273,2021-2-04T03:18:47Z
2021-02-04T01:20:47Z,42.805,6.029,13.2990,4.59991,2470.24,2021-2-04T03:21:50Z
2021-02-04T01:23:50Z,42.805,6.029,13.2988,4.59994,2470.24,2021-2-04T03:24:53Z
2021-02-04T01:26:54Z,42.805,6.029,13.2985,4.59992,2470.264,2021-2-04T03:27:57Z
2021-02-04T01:29:57Z,42.805,6.029,13.2987,4.59996,2470.273,2021-2-04T03:31:00Z
2021-02-04T01:33:00Z,42.805,6.029,13.2991,4.59993,2470.25,2021-2-04T03:34:03Z
2021-02-04T01:36:03Z,42.805,6.029,13.2986,4.59993,2470.25,2021-2-04T03:37:06Z
2021-02-04T01:39:06Z,42.805,6.029,13.2987,4.59992,2470.264,2021-2-04T03:40:09Z
2021-02-04T01:42:09Z,42.805,6.029,13.2987,4.59992,2470.264,2021-2-04T03:43:12Z
2021-02-04T01:45:12Z,42.805,6.029,13.2989,4.59994,2470.25,2021-2-04T03:46:15Z
2021-02-04T01:48:15Z,42.805,6.029,13.2987,4.59993,2470.264,2021-2-04T03:49:18Z
2021-02-04T01:51:18Z,42.805,6.029,13.2989,4.59993,2470.264,2021-2-04T03:52:21Z
2021-02-04T01:54:22Z,42.805,6.029,13.2990,4.59996,2470.227,2021-2-04T03:55:25Z
2021-02-04T01:57:25Z,42.805,6.029,13.2989,4.59994,2470.24,2021-2-04T03:58:28Z
2021-02-04T02:00:28Z,42.805,6.029,13.2989,4.59993,2470.24,2021-2-04T04:01:31Z
2021-02-04T02:03:31Z,42.805,6.029,13.2988,4.59994,2470.25,2021-2-04T04:04:34Z
2021-02-04T02:06:34Z,42.805,6.029,13.2988,4.59993,2470.25,2021-2-04T04:07:37Z
2021-02-04T02:09:37Z,42.805,6.029,13.2992,4.59996,2470.25,2021-2-04T04:10:40Z
2021-02-04T02:12:40Z,42.805,6.029,13.2988,4.59995,2470.25,2021-2-04T04:13:43Z
2021-02-04T02:15:43Z,42.805,6.029,13.2990,4.59993,2470.227,2021-2-04T04:16:46Z
2021-02-04T02:18:47Z,42.805,6.029,13.2987,4.59992,2470.227,2021-2-04T04:19:50Z
2021-02-04T02:21:50Z,42.805,6.029,13.2990,4.59993,2470.227,2021-2-04T04:22:53Z
2021-02-04T02:24:53Z,42.805,6.029,13.2990,4.59994,2470.25,2021-2-04T04:25:56Z
2021-02-04T02:27:56Z,42.805,6.029,13.2990,4.59992,2470.24,2021-2-04T04:28:59Z
2021-02-04T02:30:59Z,42.805,6.029,13.2985,4.59993,2470.24,2021-2-04T04:32:02Z
2021-02-04T02:34:02Z,42.805,6.029,13.2988,4.59996,2470.24,2021-2-04T04:35:05Z
2021-02-04T02:37:05Z,42.805,6.029,13.2992,4.59996,2470.25,2021-2-04T04:38:08Z
2021-02-04T02:40:08Z,42.805,6.029,13.2992,4.59993,2470.227,2021-2-04T04:41:11Z
2021-02-04T02:43:11Z,42.805,6.029,13.2986,4.59995,2470.25,2021-2-04T04:44:14Z
2021-02-04T02:46:15Z,42.805,6.029,13.2988,4.59993,2470.25,2021-2-04T04:47:18Z
2021-02-04T02:49:18Z,42.805,6.029,13.2990,4.59993,2470.217,2021-2-04T04:50:21Z
2021-02-04T02:52:21Z,42.805,6.029,13.2987,4.59992,2470.24,2021-2-04T04:53:24Z
2021-02-04T02:55:24Z,42.805,6.029,13.2990,4.59992,2470.25,2021-2-04T04:56:27Z
2021-02-04T02:58:27Z,42.805,6.029,13.2991,4.59992,2470.24,2021-2-04T04:59:30Z
2021-02-04T03:01:30Z,42.805,6.029,13.2990,4.59993,2470.25,2021-2-04T05:02:33Z
2021-02-04T03:04:33Z,42.805,6.029,13.2991,4.59993,2470.227,2021-2-04T05:05:36Z
2021-02-04T03:07:36Z,42.805,6.029,13.2986,4.59994,2470.227,2021-2-04T05:08:39Z
2021-02-04T03:10:40Z,42.805,6.029,13.2991,4.59992,2470.194,2021-2-04T05:11:43Z
2021-02-04T03:13:43Z,42.805,6.029,13.2991,4.59994,2470.194,2021-2-04T05:14:46Z
2021-02-04T03:16:46Z,42.805,6.029,13.2991,4.59994,2470.203,2021-2-04T05:17:49Z
2021-02-04T03:19:49Z,42.805,6.029,13.2990,4.59994,2470.227,2021-2-04T05:20:52Z
2021-02-04T03:22:52Z,42.805,6.029,13.2991,4.59992,2470.24,2021-2-04T05:23:55Z
2021-02-04T03:25:55Z,42.805,6.029,13.2988,4.59993,2470.203,2021-2-04T05:26:58Z
2021-02-04T03:28:58Z,42.805,6.029,13.2990,4.59993,2470.203,2021-2-04T05:30:01Z
2021-02-04T03:32:01Z,42.805,6.029,13.2993,4.59993,2470.227,2021-2-04T05:33:04Z
2021-02-04T03:35:05Z,42.805,6.029,13.2987,4.59993,2470.24,2021-2-04T05:36:08Z
2021-02-04T03:38:08Z,42.805,6.029,13.2991,4.59994,2470.203,2021-2-04T05:39:11Z
2021-02-04T03:41:11Z,42.805,6.029,13.2986,4.59993,2470.217,2021-2-04T05:42:14Z
2021-02-04T03:44:14Z,42.805,6.029,13.2988,4.59992,2470.203,2021-2-04T05:45:17Z
2021-02-04T03:47:17Z,42.805,6.029,13.2989,4.59992,2470.217,2021-2-04T05:48:20Z
2021-02-04T03:50:20Z,42.805,6.029,13.2990,4.59993,2470.203,2021-2-04T05:51:23Z
2021-02-04T03:53:23Z,42.805,6.029,13.2989,4.59991,2470.203,2021-2-04T05:54:26Z
2021-02-04T03:56:26Z,42.805,6.029,13.2986,4.59994,2470.227,2021-2-04T05:57:29Z
2021-02-04T03:59:29Z,42.805,6.029,13.2988,4.59993,2470.203,2021-2-04T06:00:32Z
2021-02-04T04:02:33Z,42.805,6.029,13.2990,4.59994,2470.18,2021-2-04T06:03:36Z
2021-02-04T04:05:36Z,42.805,6.029,13.2991,4.59994,2470.227,2021-2-04T06:06:39Z
2021-02-04T04:08:39Z,42.805,6.029,13.2993,4.59995,2470.203,2021-2-04T06:09:42Z
2021-02-04T04:11:42Z,42.805,6.029,13.2990,4.59992,2470.203,2021-2-04T06:12:45Z
2021-02-04T04:14:45Z,42.805,6.029,13.2984,4.59993,2470.203,2021-2-04T06:15:48Z
2021-02-04T04:17:48Z,42.805,6.029,13.2990,4.59992,2470.203,2021-2-04T06:18:51Z
2021-02-04T04:20:51Z,42.805,6.029,13.2989,4.59994,2470.203,2021-2-04T06:21:54Z
2021-02-04T04:23:54Z,42.805,6.029,13.2993,4.60000,2470.203,2021-2-04T06:24:57Z
2021-02-04T04:26:58Z,42.805,6.029,13.2989,4.59994,2470.194,2021-2-04T06:28:01Z
2021-02-04T04:30:01Z,42.805,6.029,13.3003,4.60014,2470.18,2021-2-04T06:31:04Z
2021-02-04T04:33:04Z,42.805,6.029,13.2990,4.59999,2470.217,2021-2-04T06:34:07Z
2021-02-04T04:36:07Z,42.805,6.029,13.2993,4.59999,2470.217,2021-2-04T06:37:10Z
2021-02-04T04:39:10Z,42.805,6.029,13.2996,4.60001,2470.18,2021-2-04T06:40:13Z
2021-02-04T04:42:13Z,42.805,6.029,13.3002,4.60002,2470.217,2021-2-04T06:43:16Z
2021-02-04T04:45:16Z,42.805,6.029,13.3008,4.60018,2470.18,2021-2-04T06:46:19Z
2021-02-04T04:48:19Z,42.805,6.029,13.3000,4.60006,2470.203,2021-2-04T06:49:22Z
2021-02-04T04:51:23Z,42.805,6.029,13.2988,4.59996,2470.194,2021-2-04T06:52:25Z
2021-02-04T04:54:26Z,42.805,6.029,13.2994,4.59995,2470.194,2021-2-04T06:55:29Z
2021-02-04T04:57:29Z,42.805,6.029,13.2986,4.59996,2470.194,2021-2-04T06:58:32Z
2021-02-04T05:00:32Z,42.805,6.029,13.3000,4.60001,2470.217,2021-2-04T07:01:35Z
2021-02-04T05:03:35Z,42.805,6.029,13.2988,4.59996,2470.18,2021-2-04T07:04:38Z
2021-02-04T05:06:38Z,42.805,6.029,13.2992,4.59993,2470.156,2021-2-04T07:07:41Z
2021-02-04T05:09:41Z,42.805,6.029,13.2992,4.59993,2470.156,2021-2-04T07:10:44Z
2021-02-04T05:12:44Z,42.805,6.029,13.2995,4.59994,2470.18,2021-2-04T07:13:47Z
2021-02-04T05:15:47Z,42.805,6.029,13.2998,4.60001,2470.217,2021-2-04T07:16:50Z
2021-02-04T05:18:51Z,42.805,6.029,13.2997,4.59997,2470.171,2021-2-04T07:19:54Z
2021-02-04T05:21:54Z,42.805,6.029,13.2990,4.59993,2470.171,2021-2-04T07:22:57Z
2021-02-04T05:24:57Z,42.805,6.029,13.2991,4.59993,2470.156,2021-2-04T07:26:00Z
2021-02-04T05:28:00Z,42.805,6.029,13.2991,4.59996,2470.18,2021-2-04T07:29:03Z
2021-02-04T05:31:03Z,42.805,6.029,13.2992,4.59994,2470.156,2021-2-04T07:32:06Z
2021-02-04T05:34:06Z,42.805,6.029,13.2993,4.59994,2470.203,2021-2-04T07:35:09Z
2021-02-04T05:37:09Z,42.805,6.029,13.3004,4.60008,2470.156,2021-2-04T07:38:12Z
2021-02-04T05:40:12Z,42.805,6.029,13.3015,4.60018,2470.133,2021-2-04T07:41:15Z
2021-02-04T05:43:16Z,42.805,6.029,13.2989,4.59996,2470.171,2021-2-04T07:44:19Z
2021-02-04T05:46:19Z,42.805,6.029,13.2989,4.59999,2470.18,2021-2-04T07:47:22Z
2021-02-04T05:49:22Z,42.805,6.029,13.2998,4.60006,2470.156,2021-2-04T07:50:25Z
2021-02-04T05:52:25Z,42.805,6.029,13.2989,4.59995,2470.133,2021-2-04T07:53:28Z
2021-02-04T05:55:28Z,42.805,6.029,13.2990,4.59999,2470.171,2021-2-04T07:56:31Z
2021-02-04T05:58:31Z,42.805,6.029,13.2988,4.59994,2470.171,2021-2-04T07:59:34Z
2021-02-04T06:01:34Z,42.805,6.029,13.3004,4.60005,2470.203,2021-2-04T08:02:37Z
2021-02-04T06:04:37Z,42.805,6.029,13.2995,4.60011,2470.156,2021-2-04T08:05:40Z
2021-02-04T06:07:40Z,42.805,6.029,13.3000,4.60008,2470.156,2021-2-04T08:08:43Z
2021-02-04T06:10:44Z,42.805,6.029,13.3003,4.60024,2470.156,2021-2-04T08:11:47Z
2021-02-04T06:13:47Z,42.805,6.029,13.2990,4.59995,2470.156,2021-2-04T08:14:50Z
2021-02-04T06:16:50Z,42.805,6.029,13.2993,4.60011,2470.18,2021-2-04T08:17:53Z
2021-02-04T06:19:53Z,42.805,6.029,13.2993,4.59996,2470.171,2021-2-04T08:20:56Z
2021-02-04T06:22:56Z,42.805,6.029,13.2994,4.59996,2470.156,2021-2-04T08:23:59Z
2021-02-04T06:25:59Z,42.805,6.029,13.2993,4.59995,2470.171,2021-2-04T08:27:02Z
2021-02-04T06:29:02Z,42.805,6.029,13.3009,4.60019,2470.156,2021-2-04T08:30:05Z
2021-02-04T06:32:05Z,42.805,6.029,13.3011,4.60019,2470.18,2021-2-04T08:33:08Z
2021-02-04T06:35:09Z,42.805,6.029,13.3004,4.60020,2470.194,2021-2-04T08:36:12Z
2021-02-04T06:38:12Z,42.805,6.029,13.3019,4.60033,2470.156,2021-2-04T08:39:15Z
2021-02-04T06:41:15Z,42.805,6.029,13.3014,4.60004,2470.18,2021-2-04T08:42:18Z
2021-02-04T06:44:18Z,42.805,6.029,13.3014,4.60022,2470.171,2021-2-04T08:45:21Z
2021-02-04T06:47:21Z,42.805,6.029,13.2997,4.60009,2470.171,2021-2-04T08:48:24Z
2021-02-04T06:50:24Z,42.805,6.029,13.2990,4.59998,2470.194,2021-2-04T08:51:27Z
2021-02-04T06:53:27Z,42.805,6.029,13.2989,4.59994,2470.194,2021-2-04T08:54:30Z
2021-02-04T06:56:30Z,42.805,6.029,13.2990,4.59993,2470.18,2021-2-04T08:57:33Z
2021-02-04T06:59:33Z,42.805,6.029,13.2991,4.59996,2470.156,2021-2-04T09:00:37Z
2021-02-04T07:02:37Z,42.805,6.029,13.2990,4.59996,2470.194,2021-2-04T09:03:40Z
2021-02-04T07:05:40Z,42.805,6.029,13.2993,4.59998,2470.18,2021-2-04T09:06:43Z
2021-02-04T07:08:43Z,42.805,6.029,13.2993,4.59996,2470.18,2021-2-04T09:09:46Z
2021-02-04T07:11:46Z,42.805,6.029,13.3006,4.59999,2470.18,2021-2-04T09:12:49Z
2021-02-04T07:14:49Z,42.805,6.029,13.2990,4.59997,2470.194,2021-2-04T09:15:52Z
2021-02-04T07:17:52Z,42.805,6.029,13.3013,4.60028,2470.18,2021-2-04T09:18:55Z
2021-02-04T07:20:55Z,42.805,6.029,13.3006,4.60014,2470.18,2021-2-04T09:21:58Z
2021-02-04T07:23:58Z,42.805,6.029,13.3014,4.60020,2470.217,2021-2-04T09:25:01Z
2021-02-04T07:27:02Z,42.805,6.029,13.3011,4.60021,2470.171,2021-2-04T09:28:05Z
2021-02-04T07:30:05Z,42.805,6.029,13.3002,4.60009,2470.194,2021-2-04T09:31:08Z
2021-02-04T07:33:08Z,42.805,6.029,13.2998,4.59996,2470.203,2021-2-04T09:34:11Z
2021-02-04T07:36:11Z,42.805,6.029,13.3015,4.60033,2470.18,2021-2-04T09:37:14Z
2021-02-04T07:39:14Z,42.805,6.029,13.2997,4.60037,2470.18,2021-2-04T09:40:17Z
2021-02-04T07:42:17Z,42.805,6.029,13.3004,4.60016,2470.203,2021-2-04T09:43:20Z
2021-02-04T07:45:20Z,42.805,6.029,13.3027,4.60017,2470.18,2021-2-04T09:46:23Z
2021-02-04T07:48:23Z,42.805,6.029,13.3021,4.60022,2470.18,2021-2-04T09:49:26Z
2021-02-04T07:51:27Z,42.805,6.029,13.3020,4.60024,2470.217,2021-2-04T09:52:30Z
2021-02-04T07:54:30Z,42.805,6.029,13.3022,4.60034,2470.18,2021-2-04T09:55:33Z
2021-02-04T07:57:33Z,42.805,6.029,13.3011,4.60018,2470.217,2021-2-04T09:58:36Z
2021-02-04T08:00:36Z,42.805,6.029,13.2994,4.59999,2470.217,2021-2-04T10:01:39Z
2021-02-04T08:03:39Z,42.805,6.029,13.3006,4.60002,2470.217,2021-2-04T10:04:42Z
2021-02-04T08:06:42Z,42.805,6.029,13.3011,4.60002,2470.203,2021-2-04T10:07:45Z
2021-02-04T08:09:45Z,42.805,6.029,13.3000,4.59996,2470.24,2021-2-04T10:10:48Z
2021-02-04T08:12:48Z,42.805,6.029,13.3011,4.59999,2470.194,2021-2-04T10:13:51Z
2021-02-04T08:15:51Z,42.805,6.029,13.3040,4.60025,2470.203,2021-2-04T10:16:54Z
2021-02-04T08:18:55Z,42.805,6.029,13.3009,4.60019,2470.24,2021-2-04T10:19:58Z
2021-02-04T08:21:58Z,42.805,6.029,13.3008,4.60015,2470.227,2021-2-04T10:23:01Z
2021-02-04T08:25:01Z,42.805,6.029,13.3005,4.60020,2470.24,2021-2-04T10:26:04Z
2021-02-04T08:28:04Z,42.805,6.029,13.3008,4.60027,2470.217,2021-2-04T10:29:07Z
2021-02-04T08:31:07Z,42.805,6.029,13.3001,4.60005,2470.227,2021-2-04T10:32:10Z
2021-02-04T08:34:10Z,42.805,6.029,13.2995,4.59999,2470.217,2021-2-04T10:35:13Z
2021-02-04T08:37:13Z,42.805,6.029,13.3018,4.60017,2470.264,2021-2-04T10:38:16Z
2021-02-04T08:40:16Z,42.805,6.029,13.3009,4.60045,2470.24,2021-2-04T10:41:19Z
2021-02-04T08:43:20Z,42.805,6.029,13.3008,4.60026,2470.264,2021-2-04T10:44:23Z
2021-02-04T08:46:23Z,42.805,6.029,13.2991,4.59998,2470.227,2021-2-04T10:47:26Z
2021-02-04T08:49:26Z,42.805,6.029,13.2998,4.59997,2470.24,2021-2-04T10:50:29Z
2021-02-04T08:52:29Z,42.805,6.029,13.2984,4.59994,2470.264,2021-2-04T10:53:32Z
2021-02-04T08:55:32Z,42.805,6.029,13.2993,4.59993,2470.25,2021-2-04T10:56:35Z
2021-02-04T08:58:35Z,42.805,6.029,13.2996,4.59999,2470.25,2021-2-04T10:59:38Z
2021-02-04T09:01:38Z,42.805,6.029,13.3006,4.60007,2470.25,2021-2-04T11:02:41Z
2021-02-04T09:04:41Z,42.805,6.029,13.2990,4.60003,2470.25,2021-2-04T11:05:44Z
2021-02-04T09:07:45Z,42.805,6.029,13.2993,4.60004,2470.25,2021-2-04T11:08:48Z
2021-02-04T09:10:48Z,42.805,6.029,13.2993,4.59999,2470.264,2021-2-04T11:11:51Z
2021-02-04T09:13:51Z,42.805,6.029,13.2992,4.60000,2470.31,2021-2-04T11:14:54Z
2021-02-04T09:16:54Z,42.805,6.029,13.2991,4.60003,2470.25,2021-2-04T11:17:57Z
2021-02-04T09:19:57Z,42.805,6.029,13.2991,4.59999,2470.273,2021-2-04T11:21:00Z
2021-02-04T09:23:00Z,42.805,6.029,13.2990,4.59996,2470.25,2021-2-04T11:24:03Z
2021-02-04T09:26:03Z,42.805,6.029,13.2986,4.59998,2470.297,2021-2-04T11:27:06Z
2021-02-04T09:29:06Z,42.805,6.029,13.2991,4.59999,2470.297,2021-2-04T11:30:09Z
2021-02-04T09:32:10Z,42.805,6.029,13.2987,4.60000,2470.32,2021-2-04T11:33:13Z
2021-02-04T09:35:13Z,42.805,6.029,13.2988,4.60003,2470.287,2021-2-04T11:36:16Z
2021-02-04T09:38:16Z,42.805,6.029,13.2989,4.60000,2470.31,2021-2-04T11:39:19Z
2021-02-04T09:41:19Z,42.805,6.029,13.2990,4.59998,2470.273,2021-2-04T11:42:22Z
2021-02-04T09:44:22Z,42.805,6.029,13.2989,4.59996,2470.297,2021-2-04T11:45:25Z
2021-02-04T09:47:25Z,42.805,6.029,13.2990,4.60000,2470.287,2021-2-04T11:48:28Z
2021-02-04T09:50:28Z,42.805,6.029,13.2990,4.59996,2470.32,2021-2-04T11:51:31Z
2021-02-04T09:53:31Z,42.805,6.029,13.2990,4.59996,2470.287,2021-2-04T11:54:34Z
2021-02-04T09:56:35Z,42.805,6.029,13.2990,4.59994,2470.297,2021-2-04T11:57:38Z
2021-02-04T09:59:38Z,42.805,6.029,13.2987,4.59995,2470.297,2021-2-04T12:00:41Z
2021-02-04T10:02:41Z,42.805,6.029,13.2989,4.59998,2470.297,2021-2-04T12:03:44Z
2021-02-04T10:05:44Z,42.805,6.029,13.2986,4.60000,2470.297,2021-2-04T12:06:47Z
2021-02-04T10:08:47Z,42.805,6.029,13.2988,4.60002,2470.334,2021-2-04T12:09:50Z
2021-02-04T10:11:50Z,42.805,6.029,13.2991,4.59997,2470.357,2021-2-04T12:12:53Z
2021-02-04T10:14:53Z,42.805,6.029,13.2990,4.59995,2470.357,2021-2-04T12:15:56Z
2021-02-04T10:17:56Z,42.805,6.029,13.2989,4.59997,2470.297,2021-2-04T12:18:59Z
2021-02-04T10:21:00Z,42.805,6.029,13.2990,4.59998,2470.32,2021-2-04T12:22:03Z
2021-02-04T10:24:03Z,42.805,6.029,13.2986,4.60001,2470.334,2021-2-04T12:25:06Z
2021-02-04T10:27:06Z,42.805,6.029,13.2991,4.59996,2470.32,2021-2-04T12:28:09Z
2021-02-04T10:30:09Z,42.805,6.029,13.2989,4.59996,2470.334,2021-2-04T12:31:12Z
2021-02-04T10:33:12Z,42.805,6.029,13.2989,4.59996,2470.357,2021-2-04T12:34:15Z
2021-02-04T10:36:15Z,42.805,6.029,13.2988,4.59996,2470.32,2021-2-04T12:37:18Z
2021-02-04T10:39:18Z,42.805,6.029,13.2989,4.59997,2470.366,2021-2-04T12:40:21Z
2021-02-04T10:42:21Z,42.805,6.029,13.2993,4.60001,2470.32,2021-2-04T12:43:24Z
2021-02-04T10:45:24Z,42.805,6.029,13.2990,4.59996,2470.32,2021-2-04T12:46:27Z
2021-02-04T10:48:28Z,42.805,6.029,13.2990,4.59996,2470.32,2021-2-04T12:49:31Z
2021-02-04T10:51:31Z,42.805,6.029,13.2990,4.59997,2470.366,2021-2-04T12:52:34Z
2021-02-04T10:54:34Z,42.805,6.029,13.2988,4.59995,2470.32,2021-2-04T12:55:37Z
2021-02-04T10:57:37Z,42.805,6.029,13.2992,4.59997,2470.38,2021-2-04T12:58:40Z
2021-02-04T11:00:40Z,42.805,6.029,13.2989,4.59996,2470.334,2021-2-04T13:01:43Z
2021-02-04T11:03:43Z,42.805,6.029,13.2991,4.59996,2470.297,2021-2-04T13:04:46Z
2021-02-04T11:06:46Z,42.805,6.029,13.2988,4.59995,2470.32,2021-2-04T13:07:49Z
2021-02-04T11:09:49Z,42.805,6.029,13.2989,4.59996,2470.343,2021-2-04T13:10:52Z
2021-02-04T11:12:53Z,42.805,6.029,13.2989,4.59996,2470.357,2021-2-04T13:13:56Z
2021-02-04T11:15:56Z,42.805,6.029,13.2990,4.59996,2470.343,2021-2-04T13:16:59Z
2021-02-04T11:18:59Z,42.805,6.029,13.2989,4.59996,2470.357,2021-2-04T13:20:02Z
2021-02-04T11:22:02Z,42.805,6.029,13.2988,4.59994,2470.334,2021-2-04T13:23:05Z
2021-02-04T11:25:05Z,42.805,6.029,13.2991,4.59994,2470.366,2021-2-04T13:26:08Z
2021-02-04T11:28:08Z,42.805,6.029,13.2989,4.59996,2470.343,2021-2-04T13:29:11Z
2021-02-04T11:31:11Z,42.805,6.029,13.2988,4.59995,2470.32,2021-2-04T13:32:14Z
2021-02-04T11:34:14Z,42.805,6.029,13.2987,4.59994,2470.32,2021-2-04T13:35:17Z
2021-02-04T11:37:18Z,42.805,6.029,13.2989,4.59996,2470.366,2021-2-04T13:38:21Z
2021-02-04T11:40:21Z,42.805,6.029,13.2990,4.59994,2470.334,2021-2-04T13:41:24Z
2021-02-04T11:43:24Z,42.805,6.029,13.2987,4.59996,2470.357,2021-2-04T13:44:27Z
2021-02-04T11:46:27Z,42.805,6.029,13.2989,4.59997,2470.343,2021-2-04T13:47:30Z
2021-02-04T11:49:30Z,42.805,6.029,13.2986,4.59994,2470.343,2021-2-04T13:50:33Z
2021-02-04T11:52:33Z,42.805,6.029,13.2989,4.59996,2470.404,2021-2-04T13:53:36Z
2021-02-04T11:55:36Z,42.805,6.029,13.2989,4.59994,2470.38,2021-2-04T13:56:39Z
2021-02-04T11:58:39Z,42.805,6.029,13.2988,4.59994,2470.343,2021-2-04T13:59:42Z
2021-02-04T12:01:43Z,42.805,6.029,13.2986,4.59994,2470.32,2021-2-04T14:02:46Z
2021-02-04T12:04:46Z,42.805,6.029,13.2988,4.59996,2470.32,2021-2-04T14:05:49Z
2021-02-04T12:07:49Z,42.805,6.029,13.2989,4.59994,2470.38,2021-2-04T14:08:52Z
2021-02-04T12:10:52Z,42.805,6.029,13.2990,4.59995,2470.343,2021-2-04T14:11:55Z
2021-02-04T12:13:55Z,42.805,6.029,13.2988,4.59996,2470.366,2021-2-04T14:14:58Z
2021-02-04T12:16:58Z,42.805,6.029,13.2986,4.59993,2470.32,2021-2-04T14:18:01Z
2021-02-04T12:20:01Z,42.805,6.029,13.2987,4.59994,2470.334,2021-2-04T14:21:04Z
2021-02-04T12:23:04Z,42.805,6.029,13.2986,4.59994,2470.343,2021-2-04T14:24:07Z
2021-02-04T12:26:08Z,42.805,6.029,13.2991,4.59996,2470.357,2021-2-04T14:27:11Z
2021-02-04T12:29:11Z,42.805,6.029,13.2989,4.59993,2470.343,2021-2-04T14:30:14Z
2021-02-04T12:32:14Z,42.805,6.029,13.2988,4.59994,2470.366,2021-2-04T14:33:17Z
2021-02-04T12:35:17Z,42.805,6.029,13.2986,4.59994,2470.343,2021-2-04T14:36:20Z
2021-02-04T12:38:20Z,42.805,6.029,13.2990,4.59996,2470.343,2021-2-04T14:39:23Z
2021-02-04T12:41:23Z,42.805,6.029,13.2991,4.59991,2470.32,2021-2-04T14:42:26Z
2021-02-04T12:44:26Z,42.805,6.029,13.2990,4.59992,2470.334,2021-2-04T14:45:29Z
2021-02-04T12:47:29Z,42.805,6.029,13.2989,4.59992,2470.334,2021-2-04T14:48:32Z
2021-02-04T12:50:33Z,42.805,6.029,13.2983,4.59994,2470.343,2021-2-04T14:51:36Z
2021-02-04T12:53:36Z,42.805,6.029,13.2986,4.59992,2470.366,2021-2-04T14:54:39Z
2021-02-04T12:56:39Z,42.805,6.029,13.2989,4.59991,2470.357,2021-2-04T14:57:42Z
2021-02-04T12:59:42Z,42.805,6.029,13.2989,4.59993,2470.334,2021-2-04T15:00:45Z
2021-02-04T13:02:45Z,42.805,6.029,13.2983,4.59994,2470.334,2021-2-04T15:03:48Z
2021-02-04T13:05:48Z,42.805,6.029,13.2989,4.59993,2470.32,2021-2-04T15:06:51Z
2021-02-04T13:08:51Z,42.805,6.029,13.2988,4.59993,2470.32,2021-2-04T15:09:54Z
2021-02-04T13:11:54Z,42.805,6.029,13.2987,4.59994,2470.32,2021-2-04T15:12:57Z
2021-02-04T13:14:57Z,42.805,6.029,13.2986,4.59992,2470.32,2021-2-04T15:16:01Z
2021-02-04T13:18:01Z,42.805,6.029,13.2986,4.59994,2470.32,2021-2-04T15:19:04Z
2021-02-04T13:21:04Z,42.805,6.029,13.2985,4.59995,2470.343,2021-2-04T15:22:07Z
2021-02-04T13:24:07Z,42.805,6.029,13.2986,4.59993,2470.32,2021-2-04T15:25:10Z
2021-02-04T13:27:10Z,42.805,6.029,13.2988,4.59996,2470.32,2021-2-04T15:28:13Z
2021-02-04T13:30:13Z,42.805,6.029,13.2990,4.59999,2470.297,2021-2-04T15:31:16Z
2021-02-04T13:33:16Z,42.805,6.029,13.2985,4.59993,2470.31,2021-2-04T15:34:19Z
2021-02-04T13:36:19Z,42.805,6.029,13.2989,4.59992,2470.32,2021-2-04T15:37:22Z
2021-02-04T13:39:22Z,42.805,6.029,13.2986,4.59992,2470.32,2021-2-04T15:40:25Z
2021-02-04T13:42:26Z,42.805,6.029,13.2987,4.59991,2470.306,2021-2-04T15:43:29Z
2021-02-04T13:45:29Z,42.805,6.029,13.2990,4.59993,2470.334,2021-2-04T15:46:32Z
2021-02-04T13:48:32Z,42.805,6.029,13.2990,4.59993,2470.273,2021-2-04T15:49:35Z
2021-02-04T13:51:35Z,42.805,6.029,13.2984,4.59992,2470.334,2021-2-04T15:52:38Z
2021-02-04T13:54:38Z,42.805,6.029,13.2986,4.59993,2470.297,2021-2-04T15:55:41Z
2021-02-04T13:57:41Z,42.805,6.029,13.2988,4.59998,2470.297,2021-2-04T15:58:44Z
2021-02-04T14:00:44Z,42.805,6.029,13.2988,4.59998,2470.32,2021-2-04T16:01:47Z
2021-02-04T14:03:47Z,42.805,6.029,13.2987,4.59991,2470.297,2021-2-04T16:04:50Z
2021-02-04T14:06:51Z,42.805,6.029,13.2986,4.59992,2470.297,2021-2-04T16:07:54Z
2021-02-04T14:09:54Z,42.805,6.029,13.2991,4.59992,2470.297,2021-2-04T16:10:57Z
2021-02-04T14:12:57Z,42.805,6.029,13.2991,4.59993,2470.297,2021-2-04T16:14:00Z
2021-02-04T14:16:00Z,42.805,6.029,13.2988,4.59991,2470.297,2021-2-04T16:17:03Z
2021-02-04T14:19:03Z,42.805,6.029,13.2988,4.59996,2470.297,2021-2-04T16:20:06Z
2021-02-04T14:22:06Z,42.805,6.029,13.2984,4.59995,2470.334,2021-2-04T16:23:09Z
2021-02-04T14:25:09Z,42.805,6.029,13.2991,4.59994,2470.31,2021-2-04T16:26:12Z
2021-02-04T14:28:12Z,42.805,6.029,13.2986,4.59992,2470.287,2021-2-04T16:29:15Z
2021-02-04T14:31:16Z,42.805,6.029,13.2986,4.59996,2470.287,2021-2-04T16:32:19Z
2021-02-04T14:34:19Z,42.805,6.029,13.2989,4.59992,2470.31,2021-2-04T16:35:22Z
2021-02-04T14:37:22Z,42.805,6.029,13.2986,4.59992,2470.31,2021-2-04T16:38:25Z
2021-02-04T14:40:25Z,42.805,6.029,13.2989,4.59994,2470.31,2021-2-04T16:41:28Z
2021-02-04T14:43:28Z,42.805,6.029,13.2987,4.59994,2470.273,2021-2-04T16:44:31Z
2021-02-04T14:46:31Z,42.805,6.029,13.2989,4.59994,2470.287,2021-2-04T16:47:34Z
2021-02-04T14:49:34Z,42.805,6.029,13.2988,4.59991,2470.297,2021-2-04T16:50:37Z
2021-02-04T14:52:37Z,42.805,6.029,13.2986,4.59992,2470.25,2021-2-04T16:53:40Z
2021-02-04T14:55:41Z,42.805,6.029,13.2989,4.59992,2470.287,2021-2-04T16:56:44Z
2021-02-04T14:58:44Z,42.805,6.029,13.2987,4.59994,2470.31,2021-2-04T16:59:47Z
2021-02-04T15:01:47Z,42.805,6.029,13.2989,4.59992,2470.297,2021-2-04T17:02:50Z
2021-02-04T15:04:50Z,42.805,6.029,13.2983,4.59993,2470.287,2021-2-04T17:05:53Z
2021-02-04T15:07:53Z,42.805,6.029,13.2990,4.59991,2470.264,2021-2-04T17:08:56Z
2021-02-04T15:10:56Z,42.805,6.029,13.2987,4.59996,2470.264,2021-2-04T17:11:59Z
2021-02-04T15:13:59Z,42.805,6.029,13.2987,4.59991,2470.287,2021-2-04T17:15:02Z